N421CE TLPC-TUPJ

Flight info

Callsign N421CE
Flight time 1h 3m
Altitude 43000
Route ILURI
Aircraft C750/M-SBDE3FGHRWXY/S

Departure

Time 2026-05-09 04:24
Airport George F. L. Charles Airport (TLPC)

Arrival

Time 2026-05-09 05:28
Airport Terrance B. Lettsome International Airport (TUPJ)
Time Latitude Longitude Altitude Speed Heading
2026-05-09 03:52 14.01998 -60.99627 15 ft 0 kts 145°
2026-05-09 04:20 14.01984 -60.99619 17 ft 4 kts 156°
2026-05-09 04:20 14.01953 -60.99617 16 ft 5 kts 185°
2026-05-09 04:21 14.01919 -60.99629 13 ft 5 kts 218°
2026-05-09 04:21 14.01902 -60.99657 15 ft 4 kts 252°
2026-05-09 04:21 14.01892 -60.99699 15 ft 7 kts 260°
2026-05-09 04:22 14.01879 -60.99769 17 ft 12 kts 256°
2026-05-09 04:22 14.01858 -60.99849 19 ft 11 kts 254°
2026-05-09 04:22 14.01837 -60.99923 18 ft 11 kts 254°
2026-05-09 04:22 14.01818 -60.99993 18 ft 8 kts 255°
2026-05-09 04:23 14.01802 -61.00042 18 ft 6 kts 225°
2026-05-09 04:23 14.01790 -61.00069 18 ft 1 kts 295°
2026-05-09 04:23 14.01791 -61.00070 18 ft 0 kts 316°
2026-05-09 04:23 14.01800 -61.00061 18 ft 5 kts 51°
2026-05-09 04:24 14.01846 -60.99893 19 ft 64 kts 75°
2026-05-09 04:24 14.02044 -60.99126 204 ft 132 kts 76°
2026-05-09 04:24 14.02588 -60.98294 698 ft 160 kts 39°
2026-05-09 04:24 14.03769 -60.97964 1119 ft 195 kts
2026-05-09 04:25 14.05158 -60.98217 1933 ft 203 kts 347°
2026-05-09 04:25 14.06491 -60.98657 2933 ft 204 kts 346°
2026-05-09 04:25 14.07834 -60.99109 3784 ft 207 kts 346°
2026-05-09 04:25 14.09218 -60.99579 4586 ft 214 kts 345°
2026-05-09 04:26 14.10714 -61.00110 4937 ft 242 kts 345°
2026-05-09 04:26 14.12350 -61.00827 5123 ft 273 kts 330°
2026-05-09 04:26 14.13739 -61.02174 5194 ft 282 kts 314°
2026-05-09 04:26 14.15054 -61.03672 5765 ft 280 kts 317°
2026-05-09 04:27 14.16486 -61.05017 6573 ft 278 kts 323°
2026-05-09 04:27 14.17988 -61.06284 7261 ft 281 kts 323°
2026-05-09 04:27 14.19480 -61.07601 8053 ft 284 kts 321°
2026-05-09 04:27 14.20961 -61.08963 8886 ft 286 kts 322°
2026-05-09 04:28 14.22459 -61.10324 9645 ft 289 kts 322°
2026-05-09 04:28 14.23981 -61.11687 10320 ft 293 kts 321°
2026-05-09 04:28 14.25516 -61.13066 11289 ft 293 kts 321°
2026-05-09 04:28 14.27064 -61.14464 12130 ft 299 kts 322°
2026-05-09 04:29 14.28637 -61.15885 12994 ft 303 kts 321°
2026-05-09 04:29 14.30240 -61.17330 13825 ft 309 kts 320°
2026-05-09 04:29 14.31861 -61.18793 14631 ft 311 kts 321°
2026-05-09 04:29 14.33502 -61.20272 15386 ft 316 kts 322°
2026-05-09 04:30 14.35161 -61.21770 16208 ft 318 kts 322°
2026-05-09 04:30 14.36840 -61.23287 17001 ft 324 kts 321°
2026-05-09 04:30 14.38593 -61.24866 17252 ft 348 kts 322°
2026-05-09 04:30 14.40487 -61.26572 17280 ft 375 kts 321°
2026-05-09 04:31 14.42511 -61.28403 17496 ft 393 kts 321°
2026-05-09 04:31 14.44566 -61.30270 18312 ft 395 kts 321°
2026-05-09 04:31 14.46644 -61.32148 18925 ft 400 kts 322°
2026-05-09 04:31 14.48752 -61.34048 19536 ft 405 kts 322°
2026-05-09 04:32 14.50857 -61.35950 20138 ft 411 kts 322°
2026-05-09 04:32 14.53048 -61.37935 20807 ft 416 kts 322°
2026-05-09 04:32 14.55234 -61.39914 21437 ft 421 kts 322°
2026-05-09 04:32 14.57419 -61.41890 22073 ft 426 kts 322°
2026-05-09 04:33 14.59660 -61.43919 22717 ft 431 kts 323°
2026-05-09 04:33 14.61925 -61.45971 23349 ft 436 kts 323°
2026-05-09 04:33 14.64217 -61.48046 23921 ft 441 kts 323°
2026-05-09 04:33 14.66531 -61.50143 24541 ft 443 kts 323°
2026-05-09 04:34 14.68851 -61.52248 25159 ft 445 kts 323°
2026-05-09 04:34 14.71189 -61.54366 25767 ft 448 kts 323°
2026-05-09 04:34 14.73536 -61.56494 26368 ft 451 kts 323°
2026-05-09 04:34 14.75899 -61.58637 26974 ft 453 kts 323°
2026-05-09 04:35 14.78276 -61.60795 27572 ft 456 kts 323°
2026-05-09 04:35 14.80663 -61.62964 28162 ft 459 kts 323°
2026-05-09 04:35 14.83067 -61.65146 28746 ft 461 kts 323°
2026-05-09 04:35 14.85487 -61.67343 29308 ft 464 kts 323°
2026-05-09 04:36 14.87919 -61.69553 29860 ft 467 kts 323°
2026-05-09 04:36 14.90368 -61.71779 30344 ft 470 kts 323°
2026-05-09 04:36 14.92828 -61.74016 30787 ft 472 kts 323°
2026-05-09 04:36 14.95297 -61.76262 31352 ft 472 kts 323°
2026-05-09 04:37 14.97752 -61.78498 32071 ft 468 kts 323°
2026-05-09 04:37 15.00190 -61.80716 32750 ft 466 kts 323°
2026-05-09 04:37 15.02620 -61.82926 33422 ft 464 kts 323°
2026-05-09 04:37 15.05035 -61.85124 34101 ft 461 kts 323°
2026-05-09 04:38 15.07436 -61.87314 34689 ft 459 kts 323°
2026-05-09 04:38 15.09828 -61.89495 35285 ft 457 kts 323°
2026-05-09 04:38 15.12206 -61.91660 35892 ft 455 kts 323°
2026-05-09 04:38 15.14575 -61.93818 36547 ft 451 kts 322°
2026-05-09 04:39 15.16912 -61.95951 37254 ft 446 kts 322°
2026-05-09 04:39 15.19236 -61.98072 37871 ft 445 kts 322°
2026-05-09 04:39 15.21551 -62.00183 38468 ft 443 kts 322°
2026-05-09 04:39 15.23861 -62.02291 39012 ft 442 kts 322°
2026-05-09 04:40 15.26167 -62.04398 39489 ft 442 kts 322°
2026-05-09 04:40 15.28469 -62.06500 39962 ft 441 kts 322°
2026-05-09 04:40 15.30772 -62.08604 40454 ft 441 kts 322°
2026-05-09 04:40 15.33074 -62.10708 40937 ft 441 kts 322°
2026-05-09 04:41 15.35373 -62.12810 41410 ft 441 kts 322°
2026-05-09 04:41 15.37673 -62.14913 41872 ft 441 kts 321°
2026-05-09 04:41 15.39970 -62.17015 42320 ft 441 kts 321°
2026-05-09 04:41 15.42268 -62.19117 42755 ft 441 kts 321°
2026-05-09 04:42 15.44567 -62.21222 43023 ft 444 kts 321°
2026-05-09 04:42 15.49296 -62.25550 43015 ft 462 kts 321°
2026-05-09 04:43 15.54193 -62.30040 43029 ft 477 kts 321°
2026-05-09 04:43 15.59231 -62.34659 43022 ft 489 kts 321°
2026-05-09 04:44 15.64363 -62.39369 43020 ft 496 kts 321°
2026-05-09 04:44 15.69528 -62.44113 43023 ft 496 kts 321°
2026-05-09 04:45 15.74657 -62.48826 43022 ft 495 kts 321°
2026-05-09 04:45 15.79813 -62.53567 43015 ft 495 kts 321°
2026-05-09 04:46 15.84960 -62.58303 43017 ft 494 kts 321°
2026-05-09 04:46 15.90094 -62.63031 43025 ft 492 kts 321°
2026-05-09 04:47 15.95207 -62.67743 43026 ft 491 kts 321°
2026-05-09 04:47 16.00316 -62.72455 43023 ft 490 kts 321°
2026-05-09 04:48 16.05410 -62.77156 43020 ft 489 kts 321°
2026-05-09 04:48 16.10496 -62.81852 43020 ft 489 kts 321°
2026-05-09 04:49 16.15577 -62.86548 43015 ft 488 kts 321°
2026-05-09 04:49 16.20653 -62.91242 43016 ft 488 kts 321°
2026-05-09 04:50 16.25719 -62.95931 43018 ft 487 kts 321°
2026-05-09 04:50 16.30811 -63.00587 43009 ft 486 kts 323°
2026-05-09 04:51 16.36129 -63.04920 43021 ft 485 kts 324°
2026-05-09 04:51 16.41393 -63.09247 43022 ft 485 kts 324°
2026-05-09 04:52 16.46696 -63.13596 43016 ft 485 kts 324°
2026-05-09 04:52 16.51996 -63.17947 43018 ft 485 kts 324°
2026-05-09 04:53 16.57291 -63.22299 42961 ft 486 kts 324°
2026-05-09 04:53 16.59984 -63.24508 42257 ft 498 kts 324°
2026-05-09 04:53 16.62714 -63.26754 41601 ft 501 kts 324°
2026-05-09 04:53 16.65452 -63.29012 40935 ft 503 kts 324°
2026-05-09 04:54 16.68188 -63.31265 40276 ft 497 kts 324°
2026-05-09 04:54 16.70876 -63.33477 39623 ft 489 kts 324°
2026-05-09 04:54 16.73533 -63.35664 38985 ft 484 kts 325°
2026-05-09 04:54 16.76160 -63.37828 38306 ft 480 kts 325°
2026-05-09 04:55 16.78770 -63.39980 37669 ft 476 kts 325°
2026-05-09 04:55 16.81356 -63.42111 37055 ft 473 kts 324°
2026-05-09 04:55 16.83936 -63.44238 36428 ft 471 kts 324°
2026-05-09 04:55 16.86501 -63.46355 35815 ft 469 kts 324°
2026-05-09 04:56 16.89054 -63.48462 35199 ft 468 kts 324°
2026-05-09 04:56 16.91608 -63.50571 34579 ft 467 kts 324°
2026-05-09 04:56 16.94148 -63.52668 33960 ft 465 kts 324°
2026-05-09 04:56 16.96677 -63.54756 33322 ft 462 kts 324°
2026-05-09 04:57 16.99186 -63.56831 32715 ft 458 kts 324°
2026-05-09 04:57 17.01677 -63.58893 32116 ft 457 kts 324°
2026-05-09 04:57 17.04176 -63.60960 31512 ft 457 kts 323°
2026-05-09 04:57 17.06667 -63.63022 30911 ft 456 kts 323°
2026-05-09 04:58 17.09147 -63.65075 30312 ft 454 kts 323°
2026-05-09 04:58 17.11615 -63.67118 29669 ft 451 kts 323°
2026-05-09 04:58 17.14067 -63.69150 29079 ft 447 kts 323°
2026-05-09 04:58 17.16489 -63.71156 28494 ft 443 kts 323°
2026-05-09 04:59 17.18894 -63.73149 27912 ft 439 kts 323°
2026-05-09 04:59 17.21276 -63.75124 27328 ft 435 kts 324°
2026-05-09 04:59 17.23639 -63.77083 26768 ft 432 kts 324°
2026-05-09 04:59 17.25981 -63.79029 26197 ft 428 kts 324°
2026-05-09 05:00 17.28310 -63.80962 25633 ft 425 kts 324°
2026-05-09 05:00 17.30590 -63.82853 25090 ft 423 kts 323°
2026-05-09 05:00 17.32919 -63.84787 24528 ft 420 kts 323°
2026-05-09 05:00 17.34432 -63.86045 24162 ft 419 kts 324°
2026-05-09 05:01 17.37443 -63.88548 23401 ft 416 kts 324°
2026-05-09 05:01 17.39697 -63.90420 22840 ft 411 kts 323°
2026-05-09 05:01 17.41925 -63.92273 22296 ft 407 kts 323°
2026-05-09 05:01 17.44126 -63.94106 21763 ft 402 kts 323°
2026-05-09 05:02 17.46300 -63.95916 21237 ft 397 kts 323°
2026-05-09 05:02 17.48451 -63.97705 20714 ft 393 kts 323°
2026-05-09 05:02 17.49892 -63.98903 20360 ft 390 kts 323°
2026-05-09 05:02 17.52009 -64.00666 19856 ft 387 kts 323°
2026-05-09 05:03 17.54105 -64.02413 19346 ft 384 kts 322°
2026-05-09 05:03 17.56188 -64.04148 18844 ft 380 kts 322°
2026-05-09 05:03 17.58249 -64.05866 18342 ft 377 kts 322°
2026-05-09 05:03 17.60288 -64.07567 17808 ft 372 kts 322°
2026-05-09 05:04 17.62301 -64.09246 17317 ft 367 kts 322°
2026-05-09 05:04 17.64258 -64.10879 16841 ft 362 kts 322°
2026-05-09 05:04 17.66213 -64.12512 16367 ft 359 kts 322°
2026-05-09 05:04 17.68173 -64.14146 15897 ft 362 kts 322°
2026-05-09 05:05 17.70134 -64.15784 15422 ft 357 kts 322°
2026-05-09 05:05 17.72058 -64.17392 14956 ft 351 kts 323°
2026-05-09 05:05 17.73955 -64.18976 14498 ft 346 kts 323°
2026-05-09 05:05 17.75825 -64.20541 14044 ft 342 kts 323°
2026-05-09 05:06 17.77679 -64.22089 13570 ft 338 kts 324°
2026-05-09 05:06 17.79511 -64.23621 13117 ft 334 kts 323°
2026-05-09 05:06 17.81316 -64.25133 12678 ft 329 kts 324°
2026-05-09 05:06 17.83094 -64.26620 12248 ft 326 kts 324°
2026-05-09 05:07 17.84864 -64.28099 11819 ft 324 kts 325°
2026-05-09 05:07 17.86622 -64.29567 11394 ft 322 kts 324°
2026-05-09 05:07 17.88357 -64.31023 10970 ft 317 kts 325°
2026-05-09 05:07 17.90060 -64.32454 10559 ft 311 kts 324°
2026-05-09 05:08 17.91733 -64.33856 10146 ft 304 kts 324°
2026-05-09 05:08 17.93356 -64.35212 9732 ft 293 kts 325°
2026-05-09 05:08 17.94915 -64.36523 9334 ft 283 kts 324°
2026-05-09 05:08 17.96443 -64.37802 8967 ft 279 kts 325°
2026-05-09 05:09 17.97949 -64.39060 8607 ft 275 kts 325°
2026-05-09 05:09 17.99419 -64.40294 8248 ft 273 kts 325°
2026-05-09 05:09 18.00906 -64.41541 7894 ft 274 kts 325°
2026-05-09 05:09 18.02401 -64.42792 7527 ft 276 kts 325°
2026-05-09 05:10 18.03903 -64.44050 7174 ft 276 kts 325°
2026-05-09 05:10 18.05410 -64.45321 6799 ft 279 kts 325°
2026-05-09 05:10 18.06926 -64.46597 6439 ft 280 kts 325°
2026-05-09 05:10 18.08450 -64.47875 6057 ft 280 kts 325°
2026-05-09 05:11 18.09978 -64.49158 5688 ft 282 kts 324°
2026-05-09 05:11 18.11509 -64.50446 5309 ft 282 kts 324°
2026-05-09 05:11 18.13043 -64.51735 4940 ft 282 kts 324°
2026-05-09 05:11 18.14576 -64.53021 4557 ft 281 kts 325°
2026-05-09 05:12 18.16104 -64.54307 4192 ft 282 kts 324°
2026-05-09 05:12 18.17626 -64.55588 3816 ft 277 kts 325°
2026-05-09 05:12 18.19111 -64.56839 3449 ft 271 kts 325°
2026-05-09 05:12 18.20547 -64.58082 3084 ft 264 kts 322°
2026-05-09 05:13 18.21556 -64.59657 2999 ft 252 kts 302°
2026-05-09 05:13 18.22371 -64.61243 2875 ft 245 kts 303°
2026-05-09 05:13 18.23216 -64.62796 2711 ft 243 kts 304°
2026-05-09 05:13 18.24267 -64.64102 2488 ft 226 kts 329°
2026-05-09 05:14 18.25638 -64.64679 2510 ft 202 kts 356°
2026-05-09 05:14 18.26951 -64.64611 2524 ft 186 kts 18°
2026-05-09 05:14 18.28093 -64.64069 2548 ft 182 kts 34°
2026-05-09 05:14 18.29181 -64.63440 2568 ft 173 kts 33°
2026-05-09 05:15 18.30167 -64.62884 2522 ft 147 kts 33°
2026-05-09 05:15 18.31016 -64.62393 2511 ft 133 kts 34°
2026-05-09 05:15 18.31817 -64.61913 2552 ft 136 kts 34°
2026-05-09 05:15 18.32668 -64.61424 2543 ft 142 kts 34°
2026-05-09 05:16 18.33534 -64.60927 2542 ft 142 kts 33°
2026-05-09 05:16 18.34425 -64.60450 2480 ft 146 kts 28°
2026-05-09 05:16 18.35383 -64.60110 2315 ft 141 kts 22°
2026-05-09 05:16 18.36298 -64.59844 2131 ft 133 kts 20°
2026-05-09 05:17 18.37182 -64.59565 1931 ft 133 kts 23°
2026-05-09 05:17 18.38040 -64.59218 1751 ft 131 kts 28°
2026-05-09 05:17 18.38878 -64.58857 1631 ft 129 kts 30°
2026-05-09 05:17 18.39712 -64.58465 1413 ft 133 kts 29°
2026-05-09 05:18 18.40550 -64.58075 1202 ft 126 kts 29°
2026-05-09 05:18 18.41276 -64.57636 1035 ft 119 kts 36°
2026-05-09 05:18 18.41998 -64.57214 818 ft 118 kts 35°
2026-05-09 05:18 18.42674 -64.56723 552 ft 120 kts 37°
2026-05-09 05:19 18.43316 -64.56156 408 ft 119 kts 47°
2026-05-09 05:19 18.43827 -64.55495 211 ft 116 kts 57°
2026-05-09 05:19 18.44234 -64.54760 64 ft 117 kts 62°
2026-05-09 05:19 18.44610 -64.54042 12 ft 102 kts 58°
2026-05-09 05:20 18.44900 -64.53475 19 ft 106 kts 73°
2026-05-09 05:20 18.45242 -64.52633 441 ft 132 kts 68°
2026-05-09 05:20 18.45584 -64.51688 994 ft 145 kts 71°
2026-05-09 05:20 18.45940 -64.50695 1977 ft 141 kts 72°
2026-05-09 05:21 18.46256 -64.49738 2867 ft 145 kts 73°
2026-05-09 05:21 18.46465 -64.48639 3185 ft 163 kts 88°
2026-05-09 05:21 18.46221 -64.47398 3190 ft 184 kts 110°
2026-05-09 05:21 18.45448 -64.46276 3033 ft 199 kts 132°
2026-05-09 05:22 18.44257 -64.45440 2811 ft 213 kts 150°
2026-05-09 05:22 18.42826 -64.45000 2724 ft 217 kts 165°
2026-05-09 05:22 18.41344 -64.44942 2836 ft 213 kts 185°
2026-05-09 05:22 18.39975 -64.45599 2727 ft 222 kts 212°
2026-05-09 05:23 18.38905 -64.46776 2724 ft 224 kts 232°
2026-05-09 05:23 18.38190 -64.48230 2695 ft 223 kts 249°
2026-05-09 05:23 18.37729 -64.49771 2670 ft 219 kts 253°
2026-05-09 05:23 18.37343 -64.51303 2702 ft 215 kts 256°
2026-05-09 05:24 18.37005 -64.52841 2628 ft 217 kts 259°
2026-05-09 05:24 18.36711 -64.54389 2412 ft 208 kts 259°
2026-05-09 05:24 18.36530 -64.55814 2086 ft 186 kts 268°
2026-05-09 05:24 18.36707 -64.57087 1854 ft 169 kts 294°
2026-05-09 05:25 18.37283 -64.58122 1563 ft 162 kts 319°
2026-05-09 05:25 18.38160 -64.58775 1373 ft 149 kts 345°
2026-05-09 05:25 18.40082 -64.58711 1026 ft 134 kts 29°
2026-05-09 05:26 18.40881 -64.58225 963 ft 136 kts 37°
2026-05-09 05:26 18.41654 -64.57664 835 ft 129 kts 41°
2026-05-09 05:26 18.42344 -64.57096 679 ft 123 kts 44°
2026-05-09 05:26 18.42984 -64.56492 534 ft 128 kts 44°
2026-05-09 05:27 18.43567 -64.55827 311 ft 119 kts 53°
2026-05-09 05:27 18.44043 -64.55109 153 ft 119 kts 60°
2026-05-09 05:27 18.44445 -64.54369 16 ft 110 kts 62°
2026-05-09 05:27 18.44746 -64.53807 12 ft 56 kts 61°
2026-05-09 05:28 18.44845 -64.53622 14 ft 13 kts 60°
2026-05-09 05:28 18.44838 -64.53572 14 ft 7 kts 137°
2026-05-09 05:28 18.44801 -64.53554 14 ft 4 kts 176°
2026-05-09 05:28 18.44776 -64.53567 14 ft 4 kts 225°
2026-05-09 05:29 18.44761 -64.53594 14 ft 4 kts 242°
2026-05-09 05:29 18.44735 -64.53642 14 ft 13 kts 239°
2026-05-09 05:29 18.44681 -64.53743 14 ft 16 kts 240°
2026-05-09 05:29 18.44630 -64.53836 15 ft 13 kts 240°
2026-05-09 05:30 18.44596 -64.53901 15 ft 9 kts 241°
2026-05-09 05:30 18.44565 -64.53910 14 ft 6 kts 153°
2026-05-09 05:30 18.44527 -64.53891 15 ft 2 kts 186°
2026-05-09 05:30 18.44513 -64.53908 15 ft 1 kts 257°
2026-05-09 05:31 18.44517 -64.53914 15 ft 2 kts 323°
2026-05-09 05:31 18.44523 -64.53910 15 ft 0 kts 45°